{"data":{"norad_id":67440,"intl_designator":"2026-007F","name":"HULIANWANG DIGUI-142","alt_names":[],"object_type":"PAYLOAD","status":"ACTIVE","operator":null,"country":"PRC","launch_date":"2026-01-13","launch_site_code":"WSC","launch_vehicle":null,"mission":null,"orbit_class":"UNKNOWN","rcs_meters":null,"size_class":null,"mass_kg":null,"dimensions":null,"purposes":[],"wikipedia_slug":null,"has_3d_model":false,"image_url":null,"decayed_at":null,"tle_current":{"epoch":"2026-05-25T01:24:59.792832Z","epoch_age_seconds":63806,"freshness":"FRESH","line1":"1 67440U 26007F   26145.05902538 -.00000086  00000+0  81515-4 0  9994","line2":"2 67440  50.0099 168.6958 0000873 281.9398  78.1376 13.29325266 17714","mean_motion":13.29325266,"eccentricity":8.73e-5,"inclination_deg":50.0099,"raan_deg":168.6958,"arg_perigee_deg":281.9398,"mean_anomaly_deg":78.1376,"bstar":8.1515e-5,"rev_number":1771,"period_min":108.3256323212,"perigee_km":1148.6521966891,"apogee_km":1149.9664888205,"semimajor_km":7527.4463427548,"source":"CELESTRAK","updated_at":"2026-05-25T13:38:07.005795Z"}}}